TimeAKDT,TemperatureF,Dew PointF,Humidity,Sea Level PressureIn,VisibilityMPH,Wind Direction,Wind SpeedMPH,Gust SpeedMPH,PrecipitationIn,Events,Conditions,WindDirDegrees,DateUTC
12:53 AM,37.0,33.1,86,29.97,10.0,Calm,Calm,-,N/A,,Scattered Clouds,0,2012-10-05 08:53:00
1:53 AM,39.0,34.0,82,29.99,10.0,Calm,Calm,-,N/A,,Mostly Cloudy,0,2012-10-05 09:53:00
2:53 AM,36.0,34.0,93,30.00,10.0,Calm,Calm,-,N/A,,Mostly Cloudy,0,2012-10-05 10:53:00
3:53 AM,34.0,32.0,92,30.02,10.0,Calm,Calm,-,N/A,,Mostly Cloudy,0,2012-10-05 11:53:00
4:53 AM,33.1,30.9,92,30.03,10.0,Calm,Calm,-,N/A,,Mostly Cloudy,0,2012-10-05 12:53:00
5:53 AM,34.0,32.0,92,30.04,10.0,Calm,Calm,-,N/A,,Mostly Cloudy,0,2012-10-05 13:53:00
6:53 AM,34.0,32.0,92,30.06,10.0,South,4.6,-,N/A,,Mostly Cloudy,170,2012-10-05 14:53:00
7:53 AM,35.1,32.0,89,30.09,10.0,WNW,3.5,-,N/A,,Mostly Cloudy,290,2012-10-05 15:53:00
8:53 AM,30.9,28.9,92,30.10,10.0,NNE,6.9,-,N/A,,Mostly Cloudy,20,2012-10-05 16:53:00
9:53 AM,35.1,33.1,92,30.12,10.0,East,4.6,-,N/A,,Mostly Cloudy,80,2012-10-05 17:53:00
10:53 AM,37.9,35.1,89,30.13,10.0,Calm,Calm,-,N/A,,Mostly Cloudy,0,2012-10-05 18:53:00
11:53 AM,39.9,35.1,83,30.12,10.0,NE,3.5,-,N/A,,Overcast,40,2012-10-05 19:53:00
12:53 PM,43.0,36.0,76,30.12,10.0,ENE,4.6,-,N/A,,Overcast,70,2012-10-05 20:53:00
1:53 PM,44.1,36.0,73,30.10,10.0,Calm,Calm,-,N/A,,Overcast,0,2012-10-05 21:53:00
2:53 PM,45.0,37.0,74,30.08,10.0,Calm,Calm,-,N/A,,Overcast,0,2012-10-05 22:53:00
3:53 PM,46.0,37.0,71,30.06,10.0,Calm,Calm,-,N/A,,Overcast,0,2012-10-05 23:53:00
4:53 PM,46.0,37.0,71,30.05,10.0,Calm,Calm,-,N/A,,Overcast,0,2012-10-06 00:53:00
5:53 PM,45.0,37.0,74,30.03,10.0,Calm,Calm,-,N/A,,Overcast,0,2012-10-06 01:53:00
6:53 PM,43.0,37.0,80,30.03,10.0,Calm,Calm,-,N/A,,Overcast,0,2012-10-06 02:53:00
7:53 PM,43.0,37.0,80,30.02,10.0,Calm,Calm,-,N/A,,Overcast,0,2012-10-06 03:53:00
8:53 PM,43.0,37.0,80,30.03,10.0,Calm,Calm,-,N/A,Rain,Light Rain,0,2012-10-06 04:53:00
9:53 PM,42.1,37.9,85,30.03,9.0,Calm,Calm,-,0.00,Rain,Light Rain,0,2012-10-06 05:53:00
10:53 PM,42.1,39.0,89,30.03,10.0,Calm,Calm,-,0.02,Rain,Light Rain,0,2012-10-06 06:53:00
11:53 PM,41.0,39.9,96,30.04,10.0,Calm,Calm,-,0.00,Rain,Light Rain,0,2012-10-06 07:53:00